This is the latest recevied weather packets stored in our database for station/object SQ3VAS-10. If no packets are shown the sender has not sent any weather packets the latest 10 day(s).
| Time | Temp. | Humidity | Pressure | Rain* | Wind** | Luminosity | Snow |
|---|---|---|---|---|---|---|---|
| 1788156435 | 68° F | 71% | 759.1 mmHg | - | - | - | - |
| 1788155862 | 68° F | 71% | 758.9 mmHg | - | - | - | - |
| 1788155288 | 67° F | 73% | 759.1 mmHg | - | - | - | - |
| 1788154715 | 66° F | 76% | 759.1 mmHg | - | - | - | - |
| 1788154142 | 65° F | 79% | 759.1 mmHg | - | - | - | - |
| 1788153568 | 64° F | 82% | 759.1 mmHg | - | - | - | - |
| 1788152996 | 64° F | 83% | 759.1 mmHg | - | - | - | - |
| 1788152423 | 63° F | 83% | 759.3 mmHg | - | - | - | - |
| 1788151851 | 63° F | 83% | 759.3 mmHg | - | - | - | - |
| 1788151278 | 62° F | 84% | 759.4 mmHg | - | - | - | - |
| 1788150705 | 63° F | 83% | 759.4 mmHg | - | - | - | - |
| 1788150133 | 63° F | 82% | 759.4 mmHg | - | - | - | - |
| 1788149561 | 63° F | 82% | 759.3 mmHg | - | - | - | - |
| 1788148988 | 64° F | 81% | 759.3 mmHg | - | - | - | - |
| 1788148416 | 64° F | 81% | 759.4 mmHg | - | - | - | - |
| 1788147843 | 65° F | 79% | 759.2 mmHg | - | - | - | - |
| 1788147272 | 65° F | 79% | 759.3 mmHg | - | - | - | - |
| 1788146698 | 65° F | 79% | 759.3 mmHg | - | - | - | - |
| 1788146126 | 65° F | 80% | 759.3 mmHg | - | - | - | - |
| 1788145552 | 65° F | 79% | 759.3 mmHg | - | - | - | - |
| 1788144981 | 64° F | 79% | 759.4 mmHg | - | - | - | - |
| 1788144408 | 65° F | 77% | 759.4 mmHg | - | - | - | - |
| 1788143837 | 65° F | 76% | 759.5 mmHg | - | - | - | - |
| 1788143264 | 66° F | 75% | 759.4 mmHg | - | - | - | - |
| 1788142693 | 65° F | 75% | 759.6 mmHg | - | - | - | - |
* Rain since midnight (hover to see other rain measurements)
** Current wind speed in m/s (hover to see current wind gust speed)